Wind_Speed
53 47 37 36 30 36 35 33 37 45 55 58 54 49 47 46 44 40 38 36 36 33 32 31 31 30 28 27 26 26 26 27 28 28 30 31 32 33 35 36 37 39 40 41
54 45 37 37 37 33 34 36 39 42 56 56 54 52 50 49 48 42 40 39 39 36 35 34 33 33 32 32 31 31 31 32 32 32 33 35 36 37 38 40 42 42 42 43
51 54 42 37 38 36 35 35 36 42 48 56 59 56 56 51 49 48 45 43 43 40 37 36 35 35 34 34 34 35 35 36 36 37 37 39 40 42 43 43 44 45 45 45
47 46 43 42 44 41 31 41 37 42 36 48 62 60 59 55 51 50 48 45 42 40 38 37 36 35 35 34 36 37 37 39 38 38 39 43 45 46 46 46 46 47 46 46
53 48 49 48 46 43 36 32 31 38 38 33 43 58 58 56 56 53 50 49 47 43 41 39 38 38 38 37 38 40 40 40 43 45 45 48 48 46 47 48 49 50 52 52
51 45 52 47 49 47 43 32 28 32 28 33 36 40 57 58 56 53 51 50 49 47 45 43 42 41 41 41 41 43 43 45 48 48 52 48 48 48 47 49 49 52 55 56
48 47 45 49 45 42 43 43 38 36 30 33 29 37 46 60 60 58 55 53 51 50 49 46 44 44 45 45 45 46 51 53 53 55 57 52 50 52 47 54 54 56 55 57
52 35 45 45 49 46 45 37 45 42 35 33 27 33 32 45 59 56 57 57 57 56 51 48 48 49 49 48 51 53 56 58 59 63 60 57 58 55 59 57 59 63 62 64
59 47 30 42 42 43 42 44 37 40 38 32 29 31 26 24 30 44 57 62 62 57 55 53 54 56 60 60 62 62 64 63 65 62 56 56 62 59 61 61 62 64 63 62
60 60 37 36 36 47 47 42 41 40 38 35 34 32 30 25 26 29 35 48 59 61 57 58 61 62 67 66 60 65 63 63 58 63 64 60 64 67 61 60 62 59 53 50
59 62 56 39 37 35 48 44 39 33 39 35 34 30 27 27 29 27 32 32 41 52 59 59 48 43 55 44 59 51 50 64 61 70 61 60 62 65 62 50 44 43 45 49
55 55 58 52 38 43 38 38 33 30 31 30 32 32 28 27 27 30 31 36 40 44 45 46 40 40 38 41 46 53 58 57 50 52 54 60 46 36 35 40 44 46 49 50
60 50 51 51 34 33 33 34 31 32 36 37 37 36 31 28 22 20 25 33 35 39 42 36 34 34 40 41 47 50 53 57 56 44 34 32 35 40 40 43 45 47 49 50
69 44 53 58 45 36 34 30 30 33 36 36 35 35 28 25 20 19 20 21 23 27 31 35 34 32 32 32 33 32 29 29 32 35 33 35 38 41 43 45 47 49 48 50
71 61 51 57 50 43 38 38 29 27 27 33 32 32 32 27 24 23 22 24 26 29 32 28 24 26 28 31 34 38 37 34 32 32 35 37 41 43 45 46 48 48 50 54
65 68 53 51 48 39 37 45 36 34 34 33 33 33 32 28 24 28 28 25 21 24 28 27 31 35 37 29 27 30 30 31 34 35 37 39 41 43 45 47 49 53 55 57
62 66 56 48 50 48 37 34 39 40 34 32 31 31 31 31 30 30 31 23 22 22 25 29 29 29 28 30 32 32 32 33 32 33 35 38 42 46 49 52 54 55 57 57
58 63 52 47 47 42 33 36 31 29 29 28 31 32 32 30 25 19 18 20 22 25 27 29 30 32 33 33 33 26 22 25 28 34 39 44 47 50 52 54 56 57 52 36
53 59 57 44 38 35 31 31 28 28 29 34 38 36 32 25 21 20 21 23 25 26 28 30 33 34 34 30 25 23 25 29 33 39 45 49 52 54 55 56 54 39 31 35
38 52 58 48 38 35 27 31 35 33 32 32 31 32 30 30 23 23 25 25 26 25 27 30 31 32 30 28 28 28 32 37 41 46 52 54 55 56 54 39 28 33 36 40
52 46 44 48 49 38 31 31 33 32 26 27 27 23 22 21 23 25 26 26 27 29 31 29 28 28 30 31 34 36 39 43 46 51 54 53 50 35 28 32 35 39 43 49
28 33 42 44 43 42 35 41 35 29 29 26 23 21 20 23 28 30 27 27 28 30 30 29 29 32 34 34 36 40 43 47 50 51 46 36 31 32 35 38 43 46 50 55
22 18 17 22 31 41 47 51 47 42 35 31 31 33 32 32 33 28 27 27 27 26 29 32 33 33 34 38 41 44 47 48 50 35 35 35 35 39 42 45 49 53 57 61
19 16 15 17 16 17 23 30 41 47 50 46 36 29 25 21 19 19 20 21 24 28 29 30 33 36 40 43 46 48 47 45 39 38 35 38 42 44 47 51 55 59 63 67
18 16 16 16 15 15 16 19 22 24 24 22 20 19 16 16 16 18 21 25 27 30 33 37 39 44 47 47 47 46 41 38 39 37 39 44 46 50 53 58 61 65 67 68
14 15 16 15 15 16 16 16 18 19 19 16 14 14 15 16 19 23 27 30 34 38 41 45 48 47 46 43 40 36 37 38 38 41 45 49 52 56 60 63 65 65 68 72
Wind_Direction
223 218 201 194 216 209 211 208 216 215 211 213 212 214 214 213 211 216 219 221 223 224 228 230 233 233 235 236 240 244 248 250 257 261 265 271 276 280 283 287 289 290 289 290
215 218 209 201 202 220 215 207 209 213 215 215 216 215 215 216 216 217 220 225 226 227 231 232 234 237 239 242 243 247 250 253 258 262 267 272 277 281 284 286 289 292 293 295
211 220 221 212 208 207 219 213 216 216 216 222 216 214 217 216 217 219 224 225 229 229 230 235 235 238 240 245 248 251 254 258 263 268 272 275 278 279 282 284 287 290 293 293
213 212 216 215 219 211 214 214 217 211 217 216 221 218 217 216 219 219 223 227 229 232 233 235 238 242 246 248 253 257 261 263 266 269 273 276 278 281 281 283 284 288 291 291
212 212 211 215 216 222 203 204 213 217 222 216 218 225 218 216 220 222 223 227 231 233 235 237 241 246 248 251 255 259 261 265 269 271 277 279 276 278 278 282 286 287 286 293
210 212 212 213 217 222 218 204 207 213 219 215 216 228 221 221 221 225 228 230 233 235 238 241 245 249 252 255 258 261 263 269 270 274 283 280 276 277 280 283 283 288 285 288
207 212 217 215 218 213 225 222 218 219 210 216 216 228 227 221 223 224 229 233 235 238 240 242 244 249 254 257 261 263 268 270 281 275 287 279 279 278 277 280 279 287 284 286
200 206 206 210 217 220 225 221 232 229 213 214 217 226 230 228 227 230 231 233 236 237 242 245 249 254 255 258 263 266 271 274 276 279 282 272 274 272 275 279 280 283 285 286
203 207 201 202 208 214 206 213 210 231 230 222 226 230 229 227 224 231 238 240 240 239 243 247 252 254 258 258 261 266 270 272 277 277 280 267 269 272 275 277 278 281 287 287
206 206 194 202 215 213 209 216 220 230 232 227 229 237 247 239 233 235 239 236 237 238 242 246 252 260 259 259 260 267 268 272 277 266 275 266 264 270 272 275 279 284 285 288
204 205 204 202 195 216 221 223 227 227 231 238 239 248 250 251 242 241 236 230 231 234 242 249 253 265 253 258 267 260 252 267 266 273 267 266 263 270 272 277 283 286 295 296
200 204 209 208 211 204 211 216 217 222 226 231 236 247 254 257 249 247 244 238 234 238 247 252 254 259 256 259 262 265 258 266 261 266 266 273 274 274 287 299 303 299 295 295
195 197 200 201 206 213 215 218 230 223 228 234 238 242 252 259 250 246 246 247 247 247 249 252 250 254 256 264 263 263 263 265 271 273 268 277 294 303 301 298 295 295 294 294
196 195 209 211 219 221 221 216 226 228 225 225 230 236 243 243 250 258 268 269 257 243 241 242 241 243 245 249 252 255 260 272 290 300 304 305 301 297 295 294 292 290 290 291
200 201 211 214 220 224 224 225 228 219 224 228 227 233 239 255 267 267 251 241 228 226 225 233 264 276 282 292 300 304 308 310 305 295 291 290 291 291 290 288 289 289 291 295
201 202 209 216 214 210 217 216 215 212 215 224 228 237 250 263 256 246 237 244 269 288 304 307 309 312 315 305 290 289 289 287 287 291 290 290 289 287 286 288 289 291 294 296
200 201 204 209 208 212 201 195 215 224 228 238 230 237 241 242 240 241 247 268 294 304 307 305 300 294 282 281 283 289 290 292 290 289 286 286 286 287 288 290 293 294 296 299
202 196 196 198 205 210 204 204 202 206 211 221 221 221 224 232 239 256 276 288 296 299 295 291 281 278 278 282 286 290 287 284 281 280 283 285 289 291 294 295 294 296 298 295
199 195 200 195 193 205 200 204 214 216 217 213 212 215 224 242 263 278 289 292 291 286 285 275 275 277 279 281 278 271 272 276 281 285 287 288 291 293 295 295 296 294 292 294
179 203 205 197 204 203 217 208 212 219 224 230 231 236 247 251 275 285 293 295 287 276 268 268 270 272 272 271 265 265 272 276 282 289 290 292 294 294 297 294 289 293 295 300
197 203 215 213 215 213 223 225 228 224 225 240 249 259 265 278 287 295 294 286 281 278 277 273 270 267 265 262 265 272 279 285 287 290 292 293 294 288 283 289 293 295 297 300
187 204 223 230 235 228 218 220 225 237 238 247 258 269 282 291 294 288 275 273 272 270 273 274 270 265 268 275 280 283 286 287 289 292 292 286 283 282 288 291 294 298 300 300
173 190 196 210 227 235 236 240 245 250 257 266 273 282 286 282 276 266 266 267 267 264 257 257 262 268 274 280 285 287 287 288 289 284 287 283 283 289 293 296 298 300 301 301
171 169 169 176 184 199 220 230 237 245 251 261 269 274 265 255 250 251 256 259 257 258 263 269 277 283 284 285 286 288 286 286 281 284 283 283 288 294 295 297 298 298 298 300
171 180 182 179 183 188 199 209 218 226 230 226 232 238 235 245 253 256 255 258 262 268 274 277 278 280 284 287 286 285 286 282 284 284 285 287 290 292 294 294 296 298 301 303
173 171 169 172 178 178 187 194 202 205 201 202 212 232 248 263 263 266 266 268 270 271 273 277 282 287 286 283 283 281 281 281 281 283 287 289 290 291 294 297 300 302 304 305
Height
5698 5706 5714 5724 5731 5737 5743 5750 5757 5763 5769 5776 5785 5794 5800 5804 5810 5813 5817 5821 5824 5827 5831 5834 5838 5840 5841 5842 5843 5843 5843 5842 5844 5844 5844 5844 5843 5842 5840 5839 5837 5834 5832 5830
5693 5700 5709 5714 5723 5731 5737 5743 5750 5757 5763 5768 5776 5785 5791 5798 5804 5807 5810 5815 5818 5821 5825 5829 5832 5835 5835 5837 5838 5838 5838 5838 5838 5838 5838 5837 5836 5835 5833 5832 5829 5827 5825 5822
5688 5697 5702 5710 5716 5725 5732 5737 5744 5751 5757 5763 5770 5777 5782 5790 5797 5801 5805 5808 5811 5815 5819 5823 5826 5828 5830 5831 5832 5833 5833 5833 5833 5832 5831 5830 5829 5827 5825 5823 5821 5819 5817 5814
5682 5690 5698 5706 5712 5719 5726 5734 5739 5745 5750 5754 5762 5767 5775 5784 5790 5795 5799 5802 5806 5809 5813 5818 5821 5823 5824 5824 5826 5827 5827 5827 5826 5825 5824 5823 5821 5819 5817 5815 5813 5811 5808 5804
5675 5684 5694 5702 5709 5713 5723 5729 5735 5740 5744 5748 5755 5760 5770 5776 5781 5787 5792 5796 5799 5803 5807 5810 5814 5816 5817 5818 5818 5819 5819 5820 5819 5817 5815 5813 5811 5809 5808 5806 5804 5802 5799 5794
5670 5679 5689 5697 5704 5709 5714 5721 5729 5733 5736 5739 5748 5752 5761 5767 5775 5781 5785 5790 5793 5796 5800 5802 5805 5808 5809 5810 5811 5811 5811 5811 5810 5809 5807 5805 5802 5801 5799 5797 5794 5791 5788 5784
5667 5675 5683 5691 5696 5704 5709 5715 5719 5724 5726 5733 5741 5743 5749 5757 5765 5772 5777 5781 5785 5789 5792 5795 5797 5799 5801 5803 5803 5803 5803 5802 5800 5799 5798 5797 5795 5793 5789 5786 5783 5780 5777 5773
5661 5670 5675 5684 5693 5702 5706 5711 5713 5718 5724 5729 5733 5735 5745 5751 5759 5766 5770 5773 5776 5780 5784 5786 5789 5792 5793 5794 5794 5793 5792 5790 5789 5788 5788 5786 5785 5782 5778 5776 5773 5770 5765 5760
5657 5663 5672 5681 5688 5694 5700 5704 5710 5714 5720 5724 5729 5734 5743 5748 5752 5757 5761 5764 5767 5772 5776 5779 5781 5782 5782 5782 5782 5782 5781 5779 5778 5777 5776 5775 5773 5770 5767 5765 5762 5757 5752 5748
5649 5661 5669 5676 5682 5687 5695 5701 5704 5709 5715 5720 5725 5728 5734 5744 5746 5749 5751 5753 5757 5762 5767 5768 5770 5771 5770 5771 5771 5771 5770 5769 5767 5765 5763 5761 5760 5757 5754 5752 5749 5745 5741 5736
5642 5653 5664 5669 5674 5682 5687 5692 5700 5705 5711 5715 5720 5723 5729 5734 5739 5741 5743 5745 5749 5754 5756 5759 5761 5758 5756 5760 5759 5759 5759 5760 5757 5755 5752 5751 5749 5747 5743 5740 5738 5734 5730 5726
5638 5647 5656 5666 5673 5677 5681 5689 5696 5701 5708 5712 5715 5719 5723 5727 5731 5734 5736 5739 5743 5747 5750 5751 5752 5753 5753 5753 5753 5752 5750 5749 5746 5746 5743 5741 5738 5734 5731 5729 5725 5723 5718 5713
5636 5641 5651 5659 5665 5667 5676 5684 5691 5697 5701 5707 5711 5716 5718 5721 5724 5727 5730 5732 5735 5738 5741 5741 5742 5744 5744 5743 5743 5742 5741 5740 5738 5735 5733 5730 5727 5724 5722 5719 5715 5711 5706 5702
5625 5636 5644 5652 5660 5667 5673 5680 5686 5691 5696 5700 5706 5711 5714 5716 5719 5721 5723 5726 5728 5730 5730 5731 5732 5734 5734 5732 5732 5731 5730 5729 5727 5725 5723 5721 5718 5715 5712 5708 5704 5700 5695 5690
5618 5631 5639 5648 5656 5663 5670 5676 5681 5684 5691 5696 5702 5706 5708 5712 5714 5716 5719 5720 5721 5723 5723 5722 5722 5722 5722 5723 5722 5721 5719 5718 5717 5715 5713 5710 5708 5705 5701 5697 5693 5689 5684 5678
5613 5626 5634 5643 5653 5660 5664 5671 5678 5682 5688 5692 5697 5701 5704 5707 5709 5712 5713 5714 5714 5716 5715 5715 5714 5714 5714 5714 5715 5715 5712 5710 5708 5706 5704 5700 5697 5694 5690 5686 5681 5676 5671 5665
5611 5622 5633 5642 5650 5655 5659 5664 5672 5679 5684 5689 5692 5695 5699 5701 5704 5707 5707 5708 5708 5708 5708 5709 5709 5709 5709 5710 5708 5705 5703 5700 5699 5696 5693 5690 5687 5684 5679 5674 5669 5663 5657 5650
5607 5618 5630 5637 5644 5650 5656 5662 5667 5673 5679 5683 5686 5689 5694 5696 5699 5700 5701 5702 5702 5702 5702 5703 5702 5702 5702 5700 5698 5696 5693 5691 5689 5687 5684 5681 5677 5672 5667 5661 5655 5649 5643 5637
5604 5618 5627 5633 5640 5646 5652 5659 5665 5670 5675 5678 5682 5686 5688 5691 5693 5694 5694 5694 5695 5697 5696 5695 5695 5694 5693 5692 5690 5688 5686 5684 5681 5678 5673 5669 5664 5659 5653 5647 5641 5636 5632 5629
5605 5613 5621 5629 5634 5642 5647 5654 5660 5664 5671 5676 5678 5682 5683 5686 5687 5688 5688 5688 5689 5689 5688 5688 5687 5686 5685 5684 5682 5681 5679 5675 5671 5667 5662 5656 5651 5645 5640 5635 5631 5628 5624 5618
5601 5607 5616 5624 5631 5638 5643 5649 5654 5663 5670 5670 5673 5675 5678 5679 5679 5681 5681 5681 5681 5680 5679 5679 5679 5678 5678 5676 5675 5672 5669 5665 5660 5655 5649 5643 5639 5634 5631 5628 5624 5619 5613 5606
5603 5611 5618 5622 5628 5636 5640 5645 5652 5657 5660 5665 5668 5669 5670 5671 5672 5672 5672 5672 5671 5671 5672 5671 5671 5669 5669 5667 5665 5662 5658 5653 5648 5643 5637 5633 5630 5627 5623 5619 5613 5606 5601 5595
5604 5610 5615 5621 5626 5631 5637 5644 5647 5651 5654 5658 5661 5663 5664 5665 5666 5665 5664 5664 5665 5666 5665 5664 5663 5661 5660 5658 5655 5651 5646 5642 5637 5632 5629 5626 5622 5618 5613 5607 5601 5595 5588 5581
5605 5610 5614 5617 5621 5625 5630 5635 5640 5645 5649 5652 5654 5656 5657 5658 5658 5658 5659 5659 5659 5659 5658 5657 5656 5653 5651 5647 5643 5638 5634 5630 5627 5623 5619 5616 5612 5607 5602 5596 5590 5583 5576 5569
5606 5609 5612 5617 5620 5624 5628 5632 5636 5639 5643 5645 5648 5651 5653 5653 5652 5652 5652 5653 5652 5651 5650 5648 5645 5642 5639 5635 5631 5627 5624 5621 5618 5613 5609 5605 5601 5596 5590 5584 5577 5571 5563 5554
5606 5609 5613 5617 5621 5625 5628 5631 5634 5637 5640 5642 5645 5646 5646 5646 5646 5646 5646 5646 5644 5642 5640 5637 5634 5631 5627 5623 5620 5617 5615 5612 5608 5603 5599 5594 5589 5583 5577 5570 5564 5556 5547 5537